![]() |
EMODnet Physics ERDDAP
Easier access to scientific data |
log in|
Brought to you by EMODnet Physics |
| Dataset Title: | NDBC - Collection of dew point temperature (DEWT) TimeSeries - IN SITU MultiPointTimeSeriesObservation
|
| Institution: | NDBC (Dataset ID: TS_DEWT_NDBC) |
| Information: | Summary
| License
| FGDC
| ISO 19115
| Metadata
| Background
| Subset
| Data Access Form
| Make a graph
|
| Name | Last modified | Size | Description | |
|---|---|---|---|---|
| Parent Directory | - | - | ||
| 44025_TS_DEWT_011999.nc | 16-Jan-2026 22:38 | 1458042 | ||
| 44025_TS_DEWT_012000.nc | 16-Jan-2026 22:42 | 1465999 | ||
| 44025_TS_DEWT_012002.nc | 16-Jan-2026 22:49 | 1471906 | ||
| 44025_TS_DEWT_012003.nc | 16-Jan-2026 22:53 | 1470728 | ||
| 44025_TS_DEWT_012004.nc | 16-Jan-2026 22:57 | 1466604 | ||
| 44025_TS_DEWT_012005.nc | 16-Jan-2026 23:02 | 1467178 | ||
| 44025_TS_DEWT_012006.nc | 16-Jan-2026 23:06 | 1476624 | ||
| 44025_TS_DEWT_012007.nc | 16-Jan-2026 23:12 | 1470472 | ||
| 44025_TS_DEWT_012008.nc | 16-Jan-2026 23:15 | 1475860 | ||
| 44025_TS_DEWT_012010.nc | 16-Jan-2026 23:25 | 1462432 | ||
| 44025_TS_DEWT_012011.nc | 16-Jan-2026 23:32 | 1476890 | ||
| 44025_TS_DEWT_012012.nc | 16-Jan-2026 23:35 | 1470717 | ||
| 44025_TS_DEWT_012013.nc | 16-Jan-2026 23:42 | 1469246 | ||
| 44025_TS_DEWT_012026.nc | 02-Feb-2026 16:42 | 1156794 | ||
| 44025_TS_DEWT_021999.nc | 16-Jan-2026 22:38 | 1473449 | ||
| 44025_TS_DEWT_022000.nc | 16-Jan-2026 22:42 | 1155230 | ||
| 44025_TS_DEWT_022002.nc | 16-Jan-2026 22:49 | 1470467 | ||
| 44025_TS_DEWT_022003.nc | 16-Jan-2026 22:53 | 1153425 | ||
| 44025_TS_DEWT_022004.nc | 16-Jan-2026 22:57 | 1471836 | ||
| 44025_TS_DEWT_022005.nc | 16-Jan-2026 23:02 | 910329 | ||
| 44025_TS_DEWT_022006.nc | 16-Jan-2026 23:07 | 1474233 | ||
| 44025_TS_DEWT_022007.nc | 16-Jan-2026 23:12 | 1472215 | ||
| 44025_TS_DEWT_022008.nc | 16-Jan-2026 23:15 | 1459318 | ||
| 44025_TS_DEWT_022009.nc | 16-Jan-2026 23:19 | 1473865 | ||
| 44025_TS_DEWT_022010.nc | 16-Jan-2026 23:25 | 425784 | ||
| 44025_TS_DEWT_022011.nc | 16-Jan-2026 23:32 | 1626731 | ||
| 44025_TS_DEWT_022012.nc | 16-Jan-2026 23:36 | 1627222 | ||
| 44025_TS_DEWT_022013.nc | 16-Jan-2026 23:42 | 1627248 | ||
| 44025_TS_DEWT_022025.nc | 17-Jan-2026 00:59 | 1468963 | ||
| 44025_TS_DEWT_022026.nc | 01-Mar-2026 05:14 | 425597 | ||
| 44025_TS_DEWT_031999.nc | 16-Jan-2026 22:39 | 1262550 | ||
| 44025_TS_DEWT_032000.nc | 16-Jan-2026 22:42 | 4126195 | ||
| 44025_TS_DEWT_032002.nc | 16-Jan-2026 22:49 | 3150490 | ||
| 44025_TS_DEWT_032003.nc | 16-Jan-2026 22:53 | 1026311 | ||
| 44025_TS_DEWT_032004.nc | 16-Jan-2026 22:58 | 1539944 | ||
| 44025_TS_DEWT_032005.nc | 16-Jan-2026 23:02 | 4918129 | ||
| 44025_TS_DEWT_032006.nc | 16-Jan-2026 23:07 | 1260617 | ||
| 44025_TS_DEWT_032007.nc | 16-Jan-2026 23:12 | 1996560 | ||
| 44025_TS_DEWT_032008.nc | 16-Jan-2026 23:16 | 3591637 | ||
| 44025_TS_DEWT_032009.nc | 16-Jan-2026 23:20 | 1109712 | ||
| 44025_TS_DEWT_032010.nc | 16-Jan-2026 23:26 | 4465041 | ||
| 44025_TS_DEWT_032011.nc | 16-Jan-2026 23:32 | 1110436 | ||
| 44025_TS_DEWT_032012.nc | 16-Jan-2026 23:36 | 5443339 | ||
| 44025_TS_DEWT_032013.nc | 16-Jan-2026 23:43 | 632478 | ||
| 44025_TS_DEWT_032025.nc | 17-Jan-2026 01:00 | 5246028 | ||
| 44025_TS_DEWT_032026.nc | 26-Mar-2026 06:25 | 1113564 | ||
| 44025_TS_DEWT_041999.nc | 16-Jan-2026 22:39 | 3943026 | ||
| 44025_TS_DEWT_042000.nc | 16-Jan-2026 22:43 | 1110741 | ||
| 44025_TS_DEWT_042002.nc | 16-Jan-2026 22:50 | 5498204 | ||
| 44025_TS_DEWT_042003.nc | 16-Jan-2026 22:54 | 1030592 | ||
| 44025_TS_DEWT_042004.nc | 16-Jan-2026 22:58 | 426470 | ||
| 44025_TS_DEWT_042005.nc | 16-Jan-2026 23:03 | 4701544 | ||
| 44025_TS_DEWT_042006.nc | 16-Jan-2026 23:07 | 1266131 | ||
| 44025_TS_DEWT_042007.nc | 16-Jan-2026 23:13 | 6389629 | ||
| 44025_TS_DEWT_042008.nc | 16-Jan-2026 23:16 | 5029672 | ||
| 44025_TS_DEWT_042009.nc | 16-Jan-2026 23:20 | 1106499 | ||
| 44025_TS_DEWT_042010.nc | 16-Jan-2026 23:26 | 5595773 | ||
| 44025_TS_DEWT_042011.nc | 16-Jan-2026 23:33 | 5254887 | ||
| 44025_TS_DEWT_042012.nc | 16-Jan-2026 23:37 | 1263979 | ||
| 44025_TS_DEWT_042013.nc | 16-Jan-2026 23:43 | 5217452 | ||
| 44025_TS_DEWT_042015.nc | 16-Jan-2026 23:55 | 5187457 | ||
| 44025_TS_DEWT_042024.nc | 17-Jan-2026 00:49 | 627210 | ||
| 44025_TS_DEWT_042025.nc | 17-Jan-2026 01:00 | 628220 | ||
| 44025_TS_DEWT_051999.nc | 16-Jan-2026 22:40 | 433520 | ||
| 44025_TS_DEWT_052000.nc | 16-Jan-2026 22:43 | 420641 | ||
| 44025_TS_DEWT_052002.nc | 16-Jan-2026 22:50 | 480578 | ||
| 44025_TS_DEWT_052003.nc | 16-Jan-2026 22:54 | 627477 | ||
| 44025_TS_DEWT_052004.nc | 16-Jan-2026 22:58 | 422465 | ||
| 44025_TS_DEWT_052005.nc | 16-Jan-2026 23:03 | 477980 | ||
| 44025_TS_DEWT_052006.nc | 16-Jan-2026 23:08 | 474461 | ||
| 44025_TS_DEWT_052007.nc | 16-Jan-2026 23:13 | 443132 | ||
| 44025_TS_DEWT_052008.nc | 16-Jan-2026 23:16 | 475228 | ||
| 44025_TS_DEWT_052009.nc | 16-Jan-2026 23:21 | 477549 | ||
| 44025_TS_DEWT_052010.nc | 16-Jan-2026 23:27 | 628472 | ||
| 44025_TS_DEWT_052011.nc | 16-Jan-2026 23:33 | 628852 | ||
| 44025_TS_DEWT_052012.nc | 16-Jan-2026 23:37 | 445567 | ||
| 44025_TS_DEWT_052015.nc | 16-Jan-2026 23:55 | 629351 | ||
| 44025_TS_DEWT_052020.nc | 17-Jan-2026 00:21 | 628165 | ||
| 44025_TS_DEWT_052024.nc | 17-Jan-2026 00:51 | 454468 | ||
| 44025_TS_DEWT_052025.nc | 17-Jan-2026 01:01 | 434706 | ||
| 44025_TS_DEWT_061999.nc | 16-Jan-2026 22:40 | 480335 | ||
| 44025_TS_DEWT_062000.nc | 16-Jan-2026 22:43 | 443131 | ||
| 44025_TS_DEWT_062002.nc | 16-Jan-2026 22:50 | 480184 | ||
| 44025_TS_DEWT_062003.nc | 16-Jan-2026 22:54 | 480193 | ||
| 44025_TS_DEWT_062004.nc | 16-Jan-2026 22:59 | 628950 | ||
| 44025_TS_DEWT_062005.nc | 16-Jan-2026 23:04 | 469259 | ||
| 44025_TS_DEWT_062006.nc | 16-Jan-2026 23:08 | 628357 | ||
| 44025_TS_DEWT_062007.nc | 16-Jan-2026 23:13 | 463001 | ||
| 44025_TS_DEWT_062008.nc | 16-Jan-2026 23:17 | 629410 | ||
| 44025_TS_DEWT_062009.nc | 16-Jan-2026 23:22 | 630827 | ||
| 44025_TS_DEWT_062010.nc | 16-Jan-2026 23:28 | 480483 | ||
| 44025_TS_DEWT_062011.nc | 16-Jan-2026 23:34 | 480533 | ||
| 44025_TS_DEWT_062012.nc | 16-Jan-2026 23:37 | 482364 | ||
| 44025_TS_DEWT_062015.nc | 16-Jan-2026 23:56 | 480162 | ||
| 44025_TS_DEWT_062020.nc | 17-Jan-2026 00:22 | 422892 | ||
| 44025_TS_DEWT_062024.nc | 17-Jan-2026 00:52 | 481890 | ||
| 44025_TS_DEWT_062025.nc | 17-Jan-2026 01:02 | 481679 | ||
| 44025_TS_DEWT_071998.nc | 16-Jan-2026 22:36 | 627926 | ||
| 44025_TS_DEWT_071999.nc | 16-Jan-2026 22:40 | 629112 | ||
| 44025_TS_DEWT_072000.nc | 16-Jan-2026 22:44 | 628957 | ||
| 44025_TS_DEWT_072002.nc | 16-Jan-2026 22:51 | 630570 | ||
| 44025_TS_DEWT_072003.nc | 16-Jan-2026 22:55 | 454584 | ||
| 44025_TS_DEWT_072004.nc | 16-Jan-2026 22:59 | 630795 | ||
| 44025_TS_DEWT_072005.nc | 16-Jan-2026 23:04 | 629821 | ||
| 44025_TS_DEWT_072006.nc | 16-Jan-2026 23:09 | 466924 | ||
| 44025_TS_DEWT_072007.nc | 16-Jan-2026 23:14 | 628340 | ||
| 44025_TS_DEWT_072008.nc | 16-Jan-2026 23:17 | 628542 | ||
| 44025_TS_DEWT_072009.nc | 16-Jan-2026 23:22 | 629249 | ||
| 44025_TS_DEWT_072010.nc | 16-Jan-2026 23:29 | 455934 | ||
| 44025_TS_DEWT_072011.nc | 16-Jan-2026 23:34 | 630656 | ||
| 44025_TS_DEWT_072012.nc | 16-Jan-2026 23:38 | 443287 | ||
| 44025_TS_DEWT_072020.nc | 17-Jan-2026 00:22 | 453246 | ||
| 44025_TS_DEWT_072024.nc | 17-Jan-2026 00:53 | 481579 | ||
| 44025_TS_DEWT_072025.nc | 17-Jan-2026 01:02 | 422338 | ||
| 44025_TS_DEWT_081998.nc | 16-Jan-2026 22:36 | 481437 | ||
| 44025_TS_DEWT_081999.nc | 16-Jan-2026 22:40 | 455153 | ||
| 44025_TS_DEWT_082001.nc | 16-Jan-2026 22:47 | 438012 | ||
| 44025_TS_DEWT_082002.nc | 16-Jan-2026 22:51 | 481283 | ||
| 44025_TS_DEWT_082003.nc | 16-Jan-2026 22:55 | 629205 | ||
| 44025_TS_DEWT_082004.nc | 16-Jan-2026 23:00 | 422722 | ||
| 44025_TS_DEWT_082005.nc | 16-Jan-2026 23:04 | 468404 | ||
| 44025_TS_DEWT_082006.nc | 16-Jan-2026 23:09 | 455092 | ||
| 44025_TS_DEWT_082007.nc | 16-Jan-2026 23:14 | 628640 | ||
| 44025_TS_DEWT_082008.nc | 16-Jan-2026 23:17 | 482715 | ||
| 44025_TS_DEWT_082009.nc | 16-Jan-2026 23:22 | 470081 | ||
| 44025_TS_DEWT_082010.nc | 16-Jan-2026 23:29 | 478458 | ||
| 44025_TS_DEWT_082012.nc | 16-Jan-2026 23:39 | 448476 | ||
| 44025_TS_DEWT_082017.nc | 17-Jan-2026 00:06 | 454692 | ||
| 44025_TS_DEWT_082024.nc | 17-Jan-2026 00:54 | 480899 | ||
| 44025_TS_DEWT_082025.nc | 17-Jan-2026 01:03 | 476313 | ||
| 44025_TS_DEWT_091998.nc | 16-Jan-2026 22:37 | 480368 | ||
| 44025_TS_DEWT_091999.nc | 16-Jan-2026 22:41 | 426761 | ||
| 44025_TS_DEWT_092001.nc | 16-Jan-2026 22:48 | 629077 | ||
| 44025_TS_DEWT_092002.nc | 16-Jan-2026 22:51 | 430980 | ||
| 44025_TS_DEWT_092003.nc | 16-Jan-2026 22:55 | 426212 | ||
| 44025_TS_DEWT_092004.nc | 16-Jan-2026 23:00 | 454830 | ||
| 44025_TS_DEWT_092005.nc | 16-Jan-2026 23:05 | 480998 | ||
| 44025_TS_DEWT_092006.nc | 16-Jan-2026 23:10 | 478737 | ||
| 44025_TS_DEWT_092007.nc | 16-Jan-2026 23:14 | 626298 | ||
| 44025_TS_DEWT_092008.nc | 16-Jan-2026 23:18 | 1625866 | ||
| 44025_TS_DEWT_092009.nc | 16-Jan-2026 23:23 | 1476361 | ||
| 44025_TS_DEWT_092010.nc | 16-Jan-2026 23:30 | 1477600 | ||
| 44025_TS_DEWT_092012.nc | 16-Jan-2026 23:40 | 1626864 | ||
| 44025_TS_DEWT_092014.nc | 16-Jan-2026 23:51 | 1473503 | ||
| 44025_TS_DEWT_092017.nc | 17-Jan-2026 00:07 | 1469757 | ||
| 44025_TS_DEWT_092024.nc | 17-Jan-2026 00:55 | 1470002 | ||
| 44025_TS_DEWT_092025.nc | 17-Jan-2026 01:04 | 1464978 | ||
| 44025_TS_DEWT_101998.nc | 16-Jan-2026 22:37 | 1473336 | ||
| 44025_TS_DEWT_101999.nc | 16-Jan-2026 22:41 | 1157769 | ||
| 44025_TS_DEWT_102001.nc | 16-Jan-2026 22:48 | 1476440 | ||
| 44025_TS_DEWT_102002.nc | 16-Jan-2026 22:52 | 1626841 | ||
| 44025_TS_DEWT_102003.nc | 16-Jan-2026 22:56 | 1476096 | ||
| 44025_TS_DEWT_102004.nc | 16-Jan-2026 23:00 | 1474709 | ||
| 44025_TS_DEWT_102005.nc | 16-Jan-2026 23:05 | 1475887 | ||
| 44025_TS_DEWT_102006.nc | 16-Jan-2026 23:10 | 1477086 | ||
| 44025_TS_DEWT_102007.nc | 16-Jan-2026 23:15 | 1626831 | ||
| 44025_TS_DEWT_102008.nc | 16-Jan-2026 23:18 | 1624278 | ||
| 44025_TS_DEWT_102009.nc | 16-Jan-2026 23:23 | 1476372 | ||
| 44025_TS_DEWT_102010.nc | 16-Jan-2026 23:30 | 1626834 | ||
| 44025_TS_DEWT_102012.nc | 16-Jan-2026 23:40 | 1465441 | ||
| 44025_TS_DEWT_102014.nc | 16-Jan-2026 23:52 | 1476695 | ||
| 44025_TS_DEWT_102015.nc | 16-Jan-2026 23:58 | 1476791 | ||
| 44025_TS_DEWT_102024.nc | 17-Jan-2026 00:56 | 1477099 | ||
| 44025_TS_DEWT_102025.nc | 17-Jan-2026 01:04 | 1626470 | ||
| 44025_TS_DEWT_111998.nc | 16-Jan-2026 22:37 | 1625733 | ||
| 44025_TS_DEWT_111999.nc | 16-Jan-2026 22:41 | 1626969 | ||
| 44025_TS_DEWT_112001.nc | 16-Jan-2026 22:48 | 1624384 | ||
| 44025_TS_DEWT_112002.nc | 16-Jan-2026 22:52 | 1626952 | ||
| 44025_TS_DEWT_112003.nc | 16-Jan-2026 22:56 | 1626580 | ||
| 44025_TS_DEWT_112004.nc | 16-Jan-2026 23:01 | 1626977 | ||
| 44025_TS_DEWT_112005.nc | 16-Jan-2026 23:06 | 1624787 | ||
| 44025_TS_DEWT_112006.nc | 16-Jan-2026 23:11 | 1476290 | ||
| 44025_TS_DEWT_112008.nc | 16-Jan-2026 23:19 | 1477087 | ||
| 44025_TS_DEWT_112009.nc | 16-Jan-2026 23:24 | 1477101 | ||
| 44025_TS_DEWT_112010.nc | 16-Jan-2026 23:31 | 1163001 | ||
| 44025_TS_DEWT_112011.nc | 16-Jan-2026 23:35 | 1626684 | ||
| 44025_TS_DEWT_112012.nc | 16-Jan-2026 23:41 | 1458607 | ||
| 44025_TS_DEWT_112014.nc | 16-Jan-2026 23:52 | 1626423 | ||
| 44025_TS_DEWT_112024.nc | 17-Jan-2026 00:57 | 1157156 | ||
| 44025_TS_DEWT_112025.nc | 17-Jan-2026 01:05 | 1475472 | ||
| 44025_TS_DEWT_121998.nc | 16-Jan-2026 22:38 | 1472969 | ||
| 44025_TS_DEWT_121999.nc | 16-Jan-2026 22:42 | 1459100 | ||
| 44025_TS_DEWT_122001.nc | 16-Jan-2026 22:49 | 1477100 | ||
| 44025_TS_DEWT_122002.nc | 16-Jan-2026 22:52 | 1472959 | ||
| 44025_TS_DEWT_122003.nc | 16-Jan-2026 22:56 | 1626566 | ||
| 44025_TS_DEWT_122004.nc | 16-Jan-2026 23:01 | 1626678 | ||
| 44025_TS_DEWT_122005.nc | 16-Jan-2026 23:06 | 1626966 | ||
| 44025_TS_DEWT_122006.nc | 16-Jan-2026 23:11 | 1625318 | ||
| 44025_TS_DEWT_122008.nc | 16-Jan-2026 23:19 | 1143955 | ||
| 44025_TS_DEWT_122009.nc | 16-Jan-2026 23:24 | 1477918 | ||
| 44025_TS_DEWT_122010.nc | 16-Jan-2026 23:31 | 1469778 | ||
| 44025_TS_DEWT_122011.nc | 16-Jan-2026 23:35 | 1476578 | ||
| 44025_TS_DEWT_122012.nc | 16-Jan-2026 23:41 | 1465632 | ||
| 44025_TS_DEWT_122014.nc | 16-Jan-2026 23:53 | 1470781 | ||
| 44025_TS_DEWT_122024.nc | 17-Jan-2026 00:58 | 1627489 | ||
| 44025_TS_DEWT_122025.nc | 17-Jan-2026 01:06 | 1627569 | ||